{"data":{"norad_id":63132,"epoch":"2026-09-20T17:11:57.081696Z","epoch_age_seconds":143542,"freshness":"FRESH","line1":"1 63132U 25043A   26263.71663289  .00184770  00000+0  14086-2 0  9997","line2":"2 63132  43.0028 155.2634 0002738 263.4061  96.6495 15.70890179 90131","mean_motion":15.70890179,"eccentricity":0.0002738,"inclination_deg":43.0028,"raan_deg":155.2634,"arg_perigee_deg":263.4061,"mean_anomaly_deg":96.6495,"bstar":0.0014086,"rev_number":9013,"period_min":91.667770239462,"perigee_km":354.50774142233,"apogee_km":358.19554740401,"semimajor_km":6734.4886444132,"source":"CELESTRAK","updated_at":"2026-09-22T09:00:49.789605Z"}}